When you browse on this site, cookies collect data to enhance your experience and personalize the content and advertising you see.
Visit our Privacy Policy to learn more. By continuing to use the site, you agree to this use of cookies and data.
  • In France
  • List of Countries
  • For 7 days
  • Water Temperature
  • Satellite Maps
  • Weather Map
  • Weather Widgets
  • user-avatar
    Login

    Hourly Weather Vanadzor

    Today, 17 July, Wednesday

    Time Temperature Precipitation Wind Pressure Humidity
    00:00 +15°C° 0 mm 1 mps 632 mmHg 87%
    01:00 +14°C° 0 mm 1 mps 632 mmHg 86%
    02:00 +14°C° 0 mm 1 mps 631 mmHg 85%
    03:00 +14°C° 0 mm 1 mps 631 mmHg 84%
    04:00 +15°C° 0 mm 1 mps 631 mmHg 84%
    05:00 +16°C° 0 mm 1 mps 632 mmHg 83%
    06:00 +16°C° 0 mm 1 mps 632 mmHg 83%
    07:00 +19°C° 0 mm 1 mps 633 mmHg 78%
    08:00 +21°C° 0 mm 1 mps 633 mmHg 73%
    09:00 +23°C° 0 mm 2 mps 633 mmHg 68%
    10:00 +24°C° 0.1 mm 2 mps 633 mmHg 66%
    11:00 +25°C° 0.1 mm 2 mps 633 mmHg 64%
    12:00 +26°C° 0.1 mm 2 mps 633 mmHg 62%
    13:00 +26°C° 0.4 mm 2 mps 633 mmHg 63%
    14:00 +26°C° 0.4 mm 2 mps 633 mmHg 64%
    15:00 +26°C° 0.4 mm 3 mps 633 mmHg 64%
    16:00 +25°C° 0.4 mm 2 mps 632 mmHg 69%
    17:00 +24°C° 0.4 mm 2 mps 632 mmHg 74%
    18:00 +23°C° 0.4 mm 2 mps 632 mmHg 79%
    19:00 +21°C° 0.1 mm 2 mps 632 mmHg 82%
    20:00 +20°C° 0.1 mm 1 mps 632 mmHg 86%
    21:00 +18°C° 0.1 mm 1 mps 632 mmHg 90%
    22:00 +18°C° 0 mm 1 mps 631 mmHg 90%
    23:00 +16°C° 0 mm 1 mps 631 mmHg 91%

    Tomorrow, 18 July, Thursday

    Time Temperature Precipitation Wind Pressure Humidity
    00:00 +16°C° 0 mm 1 mps 631 mmHg 91%
    01:00 +16°C° 0 mm 1 mps 631 mmHg 92%
    02:00 +16°C° 0 mm 1 mps 631 mmHg 93%
    03:00 +16°C° 0 mm 1 mps 631 mmHg 93%
    04:00 +16°C° 0 mm 1 mps 632 mmHg 93%
    05:00 +18°C° 0 mm 1 mps 632 mmHg 93%
    06:00 +18°C° 0 mm 1 mps 632 mmHg 93%
    07:00 +20°C° 0 mm 1 mps 633 mmHg 88%
    08:00 +21°C° 0 mm 1 mps 633 mmHg 84%
    09:00 +21°C° 0 mm 2 mps 633 mmHg 80%
    10:00 +23°C° 0.1 mm 2 mps 633 mmHg 77%
    11:00 +24°C° 0.1 mm 2 mps 633 mmHg 74%
    12:00 +25°C° 0.1 mm 2 mps 633 mmHg 71%
    13:00 +25°C° 0.3 mm 2 mps 633 mmHg 69%
    14:00 +25°C° 0.3 mm 2 mps 633 mmHg 68%
    15:00 +26°C° 0.3 mm 2 mps 633 mmHg 67%
    16:00 +25°C° 0.3 mm 2 mps 633 mmHg 71%
    17:00 +24°C° 0.3 mm 2 mps 632 mmHg 76%
    18:00 +24°C° 0.3 mm 2 mps 632 mmHg 81%
    19:00 +21°C° 0.3 mm 2 mps 632 mmHg 84%
    20:00 +20°C° 0.3 mm 1 mps 633 mmHg 88%
    21:00 +19°C° 0.3 mm 1 mps 633 mmHg 92%
    22:00 +18°C° 0.1 mm 1 mps 633 mmHg 92%
    23:00 +18°C° 0.1 mm 1 mps 633 mmHg 91%

    Day after tomorrow, 19 July, Friday

    Time Temperature Precipitation Wind Pressure Humidity
    00:00 +18°C° 0.1 mm 1 mps 633 mmHg 91%
    01:00 +16°C° 0 mm 1 mps 633 mmHg 92%
    02:00 +16°C° 0 mm 1 mps 633 mmHg 92%
    03:00 +16°C° 0 mm 1 mps 633 mmHg 93%
    04:00 +16°C° 0 mm 1 mps 634 mmHg 93%
    05:00 +18°C° 0 mm 1 mps 634 mmHg 92%
    06:00 +19°C° 0 mm 1 mps 634 mmHg 92%
    07:00 +20°C° 0 mm 1 mps 635 mmHg 89%
    08:00 +21°C° 0 mm 1 mps 635 mmHg 85%
    09:00 +22°C° 0 mm 1 mps 636 mmHg 81%
    10:00 +23°C° 0.1 mm 2 mps 636 mmHg 78%
    11:00 +24°C° 0.1 mm 2 mps 636 mmHg 76%
    12:00 +25°C° 0.1 mm 2 mps 636 mmHg 73%
    13:00 +25°C° 0.3 mm 2 mps 635 mmHg 73%
    14:00 +25°C° 0.3 mm 3 mps 635 mmHg 74%
    15:00 +25°C° 0.3 mm 3 mps 635 mmHg 74%
    16:00 +24°C° 0.3 mm 2 mps 635 mmHg 77%
    17:00 +24°C° 0.3 mm 2 mps 635 mmHg 80%
    18:00 +23°C° 0.3 mm 2 mps 635 mmHg 83%
    19:00 +21°C° 0 mm 2 mps 635 mmHg 86%
    20:00 +19°C° 0 mm 2 mps 635 mmHg 88%
    21:00 +19°C° 0 mm 1 mps 636 mmHg 91%
    22:00 +18°C° 0 mm 1 mps 636 mmHg 91%
    23:00 +18°C° 0 mm 1 mps 636 mmHg 91%

    20 July, Saturday

    Time Temperature Precipitation Wind Pressure Humidity
    00:00 +16°C° 0 mm 1 mps 636 mmHg 91%
    01:00 +16°C° 0 mm 1 mps 636 mmHg 92%
    02:00 +16°C° 0 mm 1 mps 636 mmHg 92%
    03:00 +16°C° 0 mm 1 mps 636 mmHg 93%
    04:00 +16°C° 0 mm 1 mps 636 mmHg 93%
    05:00 +18°C° 0 mm 1 mps 637 mmHg 93%
    06:00 +18°C° 0 mm 1 mps 637 mmHg 93%
    07:00 +20°C° 0 mm 1 mps 637 mmHg 89%
    08:00 +20°C° 0 mm 2 mps 638 mmHg 85%
    09:00 +23°C° 0 mm 2 mps 638 mmHg 80%
    10:00 +23°C° 0 mm 2 mps 638 mmHg 79%
    11:00 +24°C° 0 mm 2 mps 638 mmHg 78%
    12:00 +24°C° 0 mm 2 mps 638 mmHg 77%
    13:00 +25°C° 0 mm 3 mps 638 mmHg 76%
    14:00 +25°C° 0 mm 3 mps 638 mmHg 76%
    15:00 +25°C° 0 mm 3 mps 638 mmHg 75%
    16:00 +25°C° 0 mm 3 mps 638 mmHg 78%
    17:00 +24°C° 0 mm 2 mps 637 mmHg 81%
    18:00 +24°C° 0 mm 2 mps 637 mmHg 83%
    19:00 +23°C° 0 mm 2 mps 637 mmHg 86%
    20:00 +20°C° 0 mm 2 mps 637 mmHg 88%
    21:00 +20°C° 0 mm 1 mps 638 mmHg 90%
    22:00 +19°C° 0 mm 1 mps 638 mmHg 89%
    23:00 +19°C° 0 mm 1 mps 638 mmHg 89%

    21 July, Sunday

    Time Temperature Precipitation Wind Pressure Humidity
    00:00 +18°C° 0 mm 1 mps 638 mmHg 88%
    01:00 +18°C° 0 mm 1 mps 637 mmHg 89%
    02:00 +16°C° 0 mm 1 mps 637 mmHg 89%
    03:00 +16°C° 0 mm 1 mps 637 mmHg 89%
    04:00 +16°C° 0 mm 1 mps 637 mmHg 90%
    05:00 +16°C° 0 mm 1 mps 637 mmHg 90%
    06:00 +18°C° 0 mm 1 mps 637 mmHg 90%
    07:00 +19°C° 0 mm 1 mps 637 mmHg 85%
    08:00 +20°C° 0 mm 2 mps 638 mmHg 79%
    09:00 +23°C° 0 mm 2 mps 638 mmHg 74%
    10:00 +24°C° 0 mm 2 mps 638 mmHg 71%
    11:00 +25°C° 0 mm 2 mps 638 mmHg 69%
    12:00 +26°C° 0 mm 2 mps 638 mmHg 66%
    13:00 +27°C° 0 mm 2 mps 638 mmHg 66%
    14:00 +27°C° 0 mm 2 mps 637 mmHg 66%
    15:00 +27°C° 0 mm 2 mps 637 mmHg 66%
    16:00 +26°C° 0 mm 2 mps 637 mmHg 70%
    17:00 +26°C° 0 mm 2 mps 637 mmHg 74%
    18:00 +25°C° 0 mm 2 mps 636 mmHg 78%
    19:00 +23°C° 0 mm 2 mps 636 mmHg 81%
    20:00 +20°C° 0 mm 2 mps 636 mmHg 83%
    21:00 +19°C° 0 mm 1 mps 636 mmHg 86%
    22:00 +19°C° 0 mm 1 mps 636 mmHg 85%
    23:00 +18°C° 0 mm 1 mps 636 mmHg 84%

    22 July, Monday

    Time Temperature Precipitation Wind Pressure Humidity
    00:00 +18°C° 0 mm 1 mps 635 mmHg 84%
    01:00 +18°C° 0 mm 1 mps 635 mmHg 84%
    02:00 +16°C° 0 mm 1 mps 635 mmHg 84%
    03:00 +16°C° 0 mm 1 mps 635 mmHg 84%
    04:00 +18°C° 0 mm 1 mps 635 mmHg 84%
    05:00 +18°C° 0 mm 1 mps 635 mmHg 84%
    06:00 +19°C° 0 mm 1 mps 635 mmHg 84%
    07:00 +20°C° 0 mm 1 mps 636 mmHg 79%
    08:00 +21°C° 0 mm 2 mps 636 mmHg 74%
    09:00 +24°C° 0 mm 2 mps 637 mmHg 70%
    10:00 +25°C° 0 mm 2 mps 637 mmHg 68%
    11:00 +26°C° 0 mm 2 mps 637 mmHg 66%
    12:00 +27°C° 0 mm 2 mps 637 mmHg 65%
    13:00 +27°C° 0 mm 3 mps 637 mmHg 65%
    14:00 +27°C° 0 mm 3 mps 636 mmHg 66%
    15:00 +27°C° 0 mm 3 mps 636 mmHg 66%
    16:00 +27°C° 0 mm 3 mps 636 mmHg 69%
    17:00 +26°C° 0 mm 2 mps 636 mmHg 73%
    18:00 +25°C° 0 mm 2 mps 636 mmHg 76%
    19:00 +23°C° 0.2 mm 2 mps 636 mmHg 81%
    20:00 +21°C° 0.2 mm 2 mps 636 mmHg 85%
    21:00 +20°C° 0.2 mm 1 mps 636 mmHg 90%
    22:00 +19°C° 0.1 mm 1 mps 635 mmHg 90%
    23:00 +19°C° 0.1 mm 1 mps 635 mmHg 91%
    Show more